Weather in Denisovka

Ukraine / Khmelnitsky District     49°55′36″N   26°27′13″E
temp.,
°C
wind,
m/s
gust,
m/s
humid.,
%
clouds,
%
prec.,
mm/h
press.,
hPa
HPBL,
m
15 may, sat
sat1500:00+11sw379096 0.0 1007219
03:00+9sw3793100 0.0 1008180
06:00+9sw3793100 0.0 1008207
09:00+11sw3694100 0.0 1009396
12:00+11w6792100 0.3 1010558
15:00+13wsw248371 0.3 1011502
18:00+16w457136 1.6 1010875
21:00+12wnw22875 2.0 101111
16 may, sun
sun1600:00+10s22905 0.0 101212
03:00+9sse22915 0.0 101221
06:00+9se3592100 0.0 101174
09:00+14se5778100 0.0 1011405
12:00+19sse6864100 0.0 10101222
15:00+20s695871 0.3 10081512
18:00+19sse696885 1.3 10071109
21:00+14se41185100 2.6 1007226
17 may, mon
mon1700:00+13s41193100 1.6 1007324
03:00+12wnw3995100 2.5 1008366
06:00+11wnw239798 0.9 1008119
09:00+14wnw348460 0.9 1008510
12:00+17wnw336897 0.1 10071067
15:00+19nw336242 1.0 10051290
18:00+18nnw44621 0.9 10041253
21:00+13nw33841 1.0 100423
18 may, tue
tue1800:00+11wnw6128751 0.0 1006338
03:00+11w51189100 0.0 1005521
06:00+11w51097100 4.3 1006517
09:00+12wnw698998 5.5 1008661
12:00+14wnw787392 0.1 10091259
15:00+17wnw785723 0.2 10091823
18:00+16wnw576192 0.0 10101509
21:00+11w3379100 0.0 101128
19 may, wed
wed1900:00+9w338813 0.0 101233
03:00+8w22910 0.2 101229
06:00+7wnw129222 0.0 101211
09:00+13wsw227697 0.0 1013377
12:00+16n325853 0.1 10111185
15:00+17nne3354100 0.1 10091556
18:00+15ene3672100 0.7 1009180
21:00+12ne3582100 2.3 100891